Chehalis, WA
on Saturday, January 12, 2013

Saturday
Previous Day Next Day
Daily Summary
 ActualAverage (KOLM)Record (KOLM)
Temperature
Mean Temperature °F 40°F  
Max Temperature 37°F 45°F 56°F (1981)
Min Temperature 23°F 34°F 5°F (1963)
Degree Days
Heating Degree Days 35 25  
Month to date heating degree days 310  
Since 1 July heating degree days 2580  
Cooling Degree Days 0 0  
Month to date cooling degree days 0  
Year to date cooling degree days 0  
Moisture
Dew Point 26°F   
Average Humidity 91    
Maximum Humidity 100    
Minimum Humidity 70    
Precipitation
Precipitation 0.01 in 0.27 in 1.30 in (1975)
Month to date precipitation 3.10  
Year to date precipitation 3.10  
Wind
Wind Speed 1 mph   
Max Wind Speed 9 mph   
Max Gust Speed mph   
Visibility 7 miles   
Events Fog   

Key: T is trace of precipitation, MM is missing value
Source: NWS Daily Summary
Time(PST)TemperatureDew PointHumidity Pressure Visibility Wind DirectionWind SpeedGust SpeedPrecipitationEvents Conditions
12:15 AM 26.6°F 26.6°F 100% 30.33 in 10.0 miles Calm Calm - N/A   Mostly Cloudy
12:35 AM 26.6°F 24.8°F 93% 30.34 in 1.5 miles Calm Calm - N/A   Mostly Cloudy
12:55 AM 26.6°F 24.8°F 93% 30.34 in 8.0 miles Calm Calm - N/A   Partly Cloudy
1:15 AM 26.6°F 24.8°F 93% 30.34 in 8.0 miles Calm Calm - N/A   Mostly Cloudy
1:35 AM 26.6°F 24.8°F 93% 30.33 in 8.0 miles Calm Calm - N/A   Overcast
1:55 AM 26.6°F 24.8°F 93% 30.34 in 3.0 miles Calm Calm - N/A   Overcast
2:15 AM 26.6°F 24.8°F 93% 30.34 in 2.5 miles Calm Calm - N/A   Overcast
2:35 AM 26.6°F 24.8°F 93% 30.34 in 1.2 miles Calm Calm - N/A   Overcast
2:55 AM 26.6°F 24.8°F 93% 30.35 in 1.0 miles Calm Calm - N/A   Overcast
3:15 AM 26.6°F 24.8°F 93% 30.34 in 5.0 miles Calm Calm - N/A   Overcast
3:35 AM 24.8°F 24.8°F 100% 30.34 in 9.0 miles Calm Calm - N/A   Partly Cloudy
3:55 AM 24.8°F 23.0°F 93% 30.34 in 3.0 miles Calm Calm - N/A   Scattered Clouds
4:15 AM 24.8°F 23.0°F 93% 30.34 in 5.0 miles Calm Calm - N/A   Overcast
4:35 AM 24.8°F 23.0°F 93% 30.35 in 1.8 miles Calm Calm - N/A   Overcast
4:55 AM 24.8°F 23.0°F 93% 30.35 in 6.0 miles Calm Calm - N/A   Overcast
5:15 AM 24.8°F 23.0°F 93% 30.35 in 0.2 miles Calm Calm - N/A Fog Light Freezing Fog
5:35 AM 24.8°F 23.0°F 93% 30.35 in 0.2 miles Calm Calm - N/A Fog Light Freezing Fog
6:15 AM 23.0°F 23.0°F 100% 30.35 in 0.2 miles Calm Calm - N/A Fog Light Freezing Fog
6:35 AM 23.0°F 23.0°F 100% 30.35 in 0.2 miles Calm Calm - N/A Fog Light Freezing Fog
6:55 AM 23.0°F 23.0°F 100% 30.36 in 0.5 miles Calm Calm - N/A Fog Light Freezing Fog
7:15 AM 24.8°F 23.0°F 93% 30.36 in 0.5 miles Calm Calm - N/A Fog Light Freezing Fog
7:35 AM 24.8°F 23.0°F 93% 30.37 in 0.5 miles Calm Calm - N/A Fog Light Freezing Fog
7:55 AM 24.8°F 23.0°F 93% 30.37 in 0.5 miles Calm Calm - N/A Fog Light Freezing Fog
8:15 AM 24.8°F 23.0°F 93% 30.38 in 0.5 miles Calm Calm - N/A Fog Light Freezing Fog
8:35 AM 24.8°F 24.8°F 100% 30.38 in 5.0 miles Calm Calm - N/A   Mostly Cloudy
8:55 AM 24.8°F 24.8°F 100% 30.39 in 8.0 miles Calm Calm - N/A   Partly Cloudy
9:15 AM 24.8°F 24.8°F 100% 30.39 in 10.0 miles Calm Calm - N/A   Clear
9:35 AM 26.6°F 24.8°F 93% 30.40 in 5.0 miles Calm Calm - N/A   Scattered Clouds
10:15 AM 28.4°F 26.6°F 93% 30.40 in 7.0 miles Calm Calm - N/A   Overcast
10:35 AM 28.4°F 28.4°F 100% 30.41 in 10.0 miles Calm Calm - 0.01 in   Scattered Clouds
10:55 AM 30.2°F 28.4°F 93% 30.40 in 10.0 miles NE 3.5 mph - 0.01 in   Clear
11:15 AM 32.0°F 28.4°F 87% 30.40 in 9.0 miles NE 3.5 mph - N/A   Clear
11:35 AM 32.0°F 30.2°F 93% 30.40 in 5.0 miles Calm Calm - N/A   Clear
11:55 AM 32.0°F 30.2°F 93% 30.39 in 10.0 miles NNE 3.5 mph - N/A   Clear
12:15 PM 32.0°F 30.2°F 93% 30.39 in 10.0 miles NNE 4.6 mph - N/A   Clear
12:35 PM 33.8°F 30.2°F 87% 30.38 in 10.0 miles NNE 5.8 mph - N/A   Clear
12:55 PM 35.6°F 30.2°F 81% 30.38 in 10.0 miles North 5.8 mph - N/A   Clear
1:15 PM 35.6°F 30.2°F 81% 30.38 in 10.0 miles North 5.8 mph - N/A   Clear
1:35 PM 35.6°F 30.2°F 81% 30.39 in 9.0 miles NNW 9.2 mph - N/A   Clear
1:55 PM 35.6°F 30.2°F 81% 30.39 in 10.0 miles North 5.8 mph - N/A   Scattered Clouds
2:15 PM 35.6°F 30.2°F 81% 30.39 in 9.0 miles North 6.9 mph - N/A   Scattered Clouds
2:35 PM 35.6°F 30.2°F 81% 30.39 in 9.0 miles North 5.8 mph - N/A   Mostly Cloudy
2:55 PM 37.4°F 28.4°F 70% 30.39 in 10.0 miles North 6.9 mph - N/A   Mostly Cloudy
3:15 PM 35.6°F 26.6°F 70% 30.40 in 9.0 miles NNE 6.9 mph - N/A   Scattered Clouds
3:35 PM 35.6°F 26.6°F 70% 30.40 in 10.0 miles North 6.9 mph - N/A   Partly Cloudy
3:55 PM 35.6°F 26.6°F 70% 30.40 in 5.0 miles North 5.8 mph - N/A   Haze
4:15 PM 35.6°F 26.6°F 70% 30.40 in 5.0 miles North 4.6 mph - N/A   Haze
4:35 PM 33.8°F 24.8°F 70% 30.40 in 9.0 miles NNE 5.8 mph - N/A   Clear
4:55 PM 32.0°F 26.6°F 80% 30.40 in 5.0 miles NNW 3.5 mph - N/A   Haze
5:15 PM 32.0°F 26.6°F 80% 30.40 in 10.0 miles Calm Calm - N/A   Clear
5:35 PM 30.2°F 26.6°F 86% 30.40 in 10.0 miles Calm Calm - N/A   Clear
5:55 PM 28.4°F 26.6°F 93% 30.40 in 9.0 miles Calm Calm - N/A   Clear
6:15 PM 28.4°F 26.6°F 93% 30.40 in 10.0 miles Calm Calm - N/A   Clear
6:35 PM 28.4°F 26.6°F 93% 30.41 in 10.0 miles Calm Calm - N/A   Clear
6:55 PM 28.4°F 26.6°F 93% 30.41 in 6.0 miles Calm Calm - N/A   Clear
7:15 PM 28.4°F 26.6°F 93% 30.42 in 6.0 miles Calm Calm - N/A   Clear
7:35 PM 28.4°F 26.6°F 93% 30.41 in 10.0 miles NE 4.6 mph - N/A   Clear
7:55 PM 26.6°F 26.6°F 100% 30.42 in 10.0 miles Calm Calm - N/A   Clear
8:15 PM 26.6°F 26.6°F 100% 30.41 in 10.0 miles Calm Calm - N/A   Clear
8:35 PM 26.6°F 26.6°F 100% 30.42 in 9.0 miles Calm Calm - N/A   Clear
8:55 PM 26.6°F 24.8°F 93% 30.42 in 10.0 miles Calm Calm - N/A   Clear
9:15 PM 26.6°F 24.8°F 93% 30.42 in 10.0 miles Calm Calm - N/A   Clear
9:35 PM 26.6°F 24.8°F 93% 30.43 in 10.0 miles NNE 4.6 mph - N/A   Clear
10:15 PM 24.8°F 24.8°F 100% 30.43 in 7.0 miles Calm Calm - N/A   Clear
10:35 PM 26.6°F 24.8°F 93% 30.44 in 8.0 miles Calm Calm - N/A   Clear
10:55 PM 24.8°F 24.8°F 100% 30.44 in 8.0 miles Calm Calm - N/A   Clear
11:15 PM 24.8°F 24.8°F 100% 30.45 in 7.0 miles Calm Calm - N/A   Clear
11:35 PM 24.8°F 24.8°F 100% 30.45 in 8.0 miles Calm Calm - N/A   Clear
11:55 PM 24.8°F 23.0°F 93% 30.45 in 3.0 miles Calm Calm - N/A   Scattered Clouds
Moon Phase
Jan. 12 Jan. 18 Jan. 26 Feb. 03 Feb. 10
Sunrise:07:53 AM (PST) Moon Rise:08:09 AM (PST)1/12
Sunset:04:47 PM (PST) Moon Set:06:31 PM (PST)1/12

Copyright © 2014 The Weather Underground, Inc.